Other Public Products
Issued by NWS Grand Forks, ND

Home | Current Version | Previous Version | Text Only | Print | Product List | Glossary Off
Versions: 1 2 3 4 5 6 7 8 9 10 11 12 13 14 15 16 17 18 19 20 21 22 23 24 25 26 27 28 29 30 31 32 33 34 35 36 37 38 39 40 41 42 43 44 45 46 47 48 49 50

000
FPUS83 KFGF 201431
OPUFGF
PRAIRIE TO PINES WEATHER ROUNDUP
NATIONAL WEATHER SERVICE EASTERN NORTH DAKOTA/GRAND FORKS ND
900 AM CDT WED AUG 20 2014

 **SATELLITE DATA USED TO AUGMENT SKY COVER AT AUTOMATED STATIONS**
 *****  WEATHER ACROSS EASTERN NORTH DAKOTA  *****

CITY           SKY/WX    TMP DP  RH WIND       PRES   REMARKS
GRAND FORKS    MOSUNNY   69  64  84 SE8       29.78S
GRAND FORKS AF MOSUNNY   68  67  99 S8        29.79S
GRAND CITY NWS   N/A     57 N/A N/A S10         N/A
BUXTON           N/A     69  69  99 SE8         N/A
DEVILS LAKE    MOSUNNY   72  63  73 SE12      29.74S
FARGO          SUNNY     72  63  73 SE8       29.79S
WAHPETON ARPT  SUNNY     70  63  78 SE10      29.80F
$$

 *****  WEATHER ACROSS CENTRAL AND WESTERN NORTH DAKOTA  *****

CITY           SKY/WX    TMP DP  RH WIND       PRES   REMARKS
JAMESTOWN      SUNNY     70  64  81 SE7       29.76S
BISMARCK       PTSUNNY   69  64  84 SE12      29.72S
MINOT          SUNNY     69  62  78 SE12      29.65F
MINOT AFB      MOSUNNY   68  67  94 SE13      29.65F
GARRISON         N/A     68  64  87 SE6       29.69S
WILLISTON      CLOUDY    70  65  84 SE3       29.65S
DICKINSON      CLOUDY    70  62  76 S9        29.67S
HETTINGER      CLOUDY    70  62  76 SE9       29.71S
$$

 *****  OTHER OBSERVATIONS NORTHEAST NORTH DAKOTA  *****

CITY           SKY/WX    TMP DP  RH WIND       PRES   REMARKS
WALHALLA         N/A     68  68 100 E6          N/A
LANGDON        FAIR      72  66  83 SE7       29.78R
CAVALIER       FAIR      68  64  88 SE5       29.78S
GRAFTON        FAIR      68  64  88 SE10      29.78S
CANDO          FAIR      72  66  83 SE12      29.75S
FORT TOTTEN      N/A     71  66  83 SE7       29.95
ROLLA          FAIR      68  68 100 SE10G17   29.75F
RUGBY          NOT AVBL
 ***** THE ABOVE OBSERVATIONS ARE NON NWS ARE NOT QUALITY
        CONTROLLED AND MAY MIS-REPORT RAIN FOR SNOW...
$$

 *****  OTHER OBSERVATIONS SOUTHEAST NORTH DAKOTA *****

CITY           SKY/WX    TMP DP  RH WIND       PRES   REMARKS
COOPERSTOWN    NOT AVBL
VALLEY CITY    FAIR      72  70  94 SE9       29.78S
OAKES          NOT AVBL
GWINNER        SUNNY     72  70  94 SE9       29.79S
BUFFALO          N/A     70  64  82 E9          N/A
WYNDMERE       NOT AVBL
 ***** THE ABOVE OBSERVATIONS ARE NON NWS ARE NOT QUALITY
       CONTROLLED AND MAY MIS-REPORT RAIN FOR SNOW...
$$

  *****  WEATHER ACROSS NORTHERN MINNESOTA  *****

CITY           SKY/WX    TMP DP  RH WIND       PRES   REMARKS
FLAG ISLAND    SUNNY     70  64  83 SE6       29.85R
WARROAD        SUNNY     70  64  83 SE7       29.85S
ROSEAU         SUNNY     70  64  83 SE6       29.84R
HALLOCK        SUNNY     72  64  78 SE7       29.78F
THF RVR FALLS  SUNNY     68  64  88 SE8       29.82S
HALSTAD          N/A     72  64  77 SE10        N/A
FOSSTON        SUNNY     70  64  83 SE5       29.84S
BAUDETTE         N/A     66  62  87 CALM      29.86S
WASKISH        SUNNY     66  64  94 CALM      29.86F
CROOKSTON      SUNNY     72  66  83 S9        29.81S
$$
  *****  WEATHER ACROSS CENTRAL AND WEST MINNESOTA  *****

CITY           SKY/WX    TMP DP  RH WIND       PRES   REMARKS
BEMIDJI        PTSUNNY   67  63  86 SE7       29.87R
PARK RAPIDS    CLOUDY    63  62  97 SE9       29.87S
WADENA         CLOUDY    64  63  94 SE5       29.86F
DETROIT LAKES  SUNNY     68  63  83 SE10      29.86S
MOORHEAD       SUNNY     72  70  94 SE8       29.80F
FERGUS FALLS   SUNNY     72  63  73 SE8       29.81F
ELBOW LAKE     FAIR      71  64  78 SE9       29.82F
MORRIS MN      SUNNY     72  66  83 SE9       29.81F
STAPLES        CLOUDY    63  63 100 S7        29.88R
WHEATON        SUNNY     68  64  88 SE12      29.81F
$$
  *****  WEATHER ELSEWHERE ACROSS MINNESOTA  *****

CITY           SKY/WX    TMP DP  RH WIND       PRES   REMARKS
DULUTH         CLOUDY    64  60  87 NW5       29.89R
INTRNTL FALLS  SUNNY     63  61  93 E5        29.89R
ELY            CLOUDY    64  61  88 W3        29.90S
CLOQUET        CLOUDY    63  61  94 NE3       29.88F
BRAINERD       PTSUNNY   66  61  84 S6        29.90R
HIBBING        CLOUDY    64  60  87 CALM      29.90S
ALEXANDRIA     SUNNY     68  64  87 SE8       29.87S
SAINT CLOUD    MOSUNNY   70  63  78 E6        29.87F
MINNEAPOLIS    MOSUNNY   70  64  81 E6        29.87R
$$

  *****  WEATHER ACROSS SOUTH DAKOTA  *****

CITY           SKY/WX    TMP DP  RH WIND       PRES   REMARKS
SIOUX FALLS    CLOUDY    71  66  84 S12       29.80S
BROOKINGS      NOT AVBL
WATERTOWN      MOSUNNY   71  63  75 SE9       29.77F
HURON          MOSUNNY   73  66  78 E9        29.75R
SISSETON         N/A     67  66  97 S6        29.79S
ABERDEEN       MOSUNNY   70  64  81 SE7       29.76S
MITCHELL       PTSUNNY   70  66  87 S16G25    29.75R
PIERRE         MOSUNNY   72  65  78 SE10      29.70R
MOBRIDGE       CLOUDY    67  64  90 SE8       29.70R
RAPID CITY     CLOUDY    66  59  78 NW5       29.74S
$$

  *****  SOME WEATHER IN NEARBY STATES *****

CITY           SKY/WX    TMP DP  RH WIND       PRES   REMARKS
GLASGOW MT     MOSUNNY   66  56  70 W8        29.66R
GREAT FALLS MT CLOUDY    60  53  77 SE7       29.81F
CHEYENNE WY    MOSUNNY   66  49  54 W10       29.97S
SCOTTSBLUFF NE PTSUNNY   68  58  70 W3        29.84R
OMAHA NE       CLOUDY    73  66  78 E18       29.84R
DES MOINES IA  TSTM      68  65  90 W10       29.94R FOG
DAVENPORT IA   PTSUNNY   73  67  81 SW3       29.89S
CHICAGO IL     MOSUNNY   74  63  68 VRB3      29.87R
EAU CLAIRE WI  CLOUDY    62  61  96 CALM      29.90R
LA CROSSE WI   CLOUDY    67  65  93 NW5       29.86S FOG
$$

  *****  SOME NATIONAL WEATHER *****

CITY           SKY/WX    TMP DP  RH WIND       PRES   REMARKS
LA GUARDIA NY  MOSUNNY   76  64  66 NE8       30.00R
RALEIGH NC     PTSUNNY   79  71  76 CALM      30.00R
ATLANTA GA     PTSUNNY   80  73  79 W7        30.07R
NEW ORLEANS LA MOSUNNY   86  76  71 CALM      30.06R HX  96
OKLAHOMA CITY  MOSUNNY   80  69  69 S15       29.92R
ALBUQUERQUE NM PTSUNNY   67  53  61 SE5       30.11R
SALT LAKE CITY CLOUDY    63  56  78 SE14      29.99R
LOS ANGELES CA MOCLDY    70  57  63 E5        29.92R
BOISE ID       SUNNY     65  48  54 SE5       29.85R
SEATTLE WA     CLOUDY    59  52  77 S10       29.95R
$$

*** WEATHER ACROSS MANITOBA...SASKATCHEWAN AND ONTARIO ***
                ***ONTARIO***

CITY           SKY/WX    TMP DP  RH WIND       PRES   REMARKS
GERALDTON      CLOUDY    59  57  94 E7        29.89  FOG
THUNDER BAY    CLOUDY    64  61  88 N3        29.86R
SIOUX LOOKOUT  MOSUNNY   64  61  88 SE5       29.90S
TORONTO        LGT RAIN  64  63  94 SE3       29.90R
BIG TROUT LK   SUNNY     68  57  68 SE5       29.91S
PICKLE LAKE    MOSUNNY   66  57  72 NE7       29.92S
DRYDEN         SUNNY     63  61  94 S5        29.90S
KENORA         MOSUNNY   64  61  88 SE6       29.90
$$
                *** MANITOBA***

CITY           SKY/WX    TMP DP  RH WIND       PRES   REMARKS
BRANDON        CLOUDY    64  64 100 E6        29.71F FOG
DAUPHIN        PTSUNNY   68  64  88 SE6       29.66R
ISLAND LAKE    MOSUNNY   72  63  73 CALM      29.84S
PILOT MOUND      N/A     68  64  88 SE7         N/A
THE PAS        PTSUNNY   68  64  88 S6        29.66S SMOKE
THOMPSON       CLOUDY    66  66 100 E2        29.73R
WINNIPEG       MOSUNNY   70  63  78 SE10      29.79S
LYNN LAKE      LGT RAIN  54  52  94 MISG      29.76S
CHURCHILL      LGT RAIN  48  46  93 SE10      29.82S
GILLAM         PTSUNNY   68  63  83 S6        29.77R
$$
                ***SASKATCHEWAN***

CITY           SKY/WX    TMP DP  RH WIND       PRES   REMARKS
ESTEVAN        TSTM      66  59  77 S12G17    29.62F
KINDERSLEY     PTSUNNY   61  57  88 NW9       29.74R
LLOYDMINSTER   MOSUNNY   57  54  88 NW9       29.74R
PRINCE ALBERT  LGT RAIN  63  61  94 VRB2      29.65R
REGINA         PTSUNNY   64  59  82 E5        29.63R
YORKTON        PTSUNNY   64  61  88 N7        29.68


USA.gov is the U.S. government's official web portal to all federal, state and local government web resources and services.